Location: Newark
(48.3453°N, 0.5589°E)
Time: 18:23:35
(UTC+00:00)

Tiros 1 despin weight - All Passes

Search period start: 10 December 2019 00:00
Search period end: 20 December 2019 00:00
Orbit: 594 x 642 km, 48.2° (Epoch: 10 December)

Date Brightness Start Highest point End Pass type
(mag) Time Alt. Az. Time Alt. Az. Time Alt. Az.
10 Dec - 04:50:43 10° SSW 04:54:30 26° SE 04:58:15 10° E visible
10 Dec - 06:31:08 10° WSW 06:35:38 70° SSE 06:40:03 10° E visible
10 Dec - 08:12:40 10° W 08:17:10 88° S 08:21:37 10° E daylight
10 Dec - 09:54:17 10° W 09:58:35 49° SSW 10:02:51 10° SE daylight
10 Dec - 11:36:53 10° WSW 11:39:24 15° SW 11:41:56 10° S daylight
11 Dec - 03:28:37 10° SSE 03:30:07 11° SE 03:31:37 10° ESE visible
11 Dec - 05:06:35 10° SW 05:10:49 41° SSE 05:15:02 10° E visible
11 Dec - 06:47:39 10° W 06:52:10 84° S 06:56:38 10° E visible
11 Dec - 08:29:16 10° W 08:33:44 78° SSW 08:38:10 10° ESE daylight
11 Dec - 10:10:59 10° W 10:14:58 33° SSW 10:18:55 10° SSE daylight
12 Dec - 03:42:57 10° S 03:46:17 20° SE 03:49:34 10° E visible
12 Dec - 05:22:48 10° WSW 05:27:16 59° SSE 05:31:40 10° E visible
12 Dec - 07:04:15 10° W 07:08:45 90° SSW 07:13:14 10° E visible
12 Dec - 08:45:51 10° W 08:50:16 61° SSW 08:54:37 10° ESE daylight
12 Dec - 10:27:57 10° W 10:31:14 20° SW 10:34:30 10° S daylight
13 Dec - 03:58:29 10° SSW 04:02:32 32° SSE 04:06:33 10° E visible
13 Dec - 05:39:15 10° WSW 05:43:47 77° SSE 05:48:14 10° E visible
13 Dec - 07:20:50 10° W 07:25:21 85° S 07:29:48 10° E daylight
13 Dec - 09:02:29 10° W 09:06:42 42° SSW 09:10:52 10° SE daylight
13 Dec - 10:45:49 10° WSW 10:47:23 12° SW 10:48:57 10° SSW daylight
14 Dec - 02:35:30 10° S 02:38:05 15° SE 02:40:40 10° ESE visible
14 Dec - 04:14:32 10° SW 04:18:55 48° SSE 04:23:16 10° E visible
14 Dec - 05:55:48 10° W 06:00:21 88° S 06:04:50 10° E visible
14 Dec - 07:37:25 10° W 07:41:54 71° SSW 07:46:19 10° ESE daylight
14 Dec - 09:19:15 10° W 09:23:02 27° SW 09:26:45 10° SSE daylight
15 Dec - 02:50:33 10° SSW 02:54:18 25° SE 02:57:59 10° E visible
15 Dec - 04:30:52 10° WSW 04:35:24 67° SSE 04:39:52 10° E visible
15 Dec - 06:12:23 10° W 06:16:56 89° S 06:21:25 10° E visible
15 Dec - 07:54:01 10° W 07:58:23 53° SSW 08:02:42 10° SE daylight
15 Dec - 09:36:27 10° W 09:39:15 16° SW 09:42:02 10° S daylight
16 Dec - 01:28:59 10° SSE 01:29:56 11° SE 01:30:53 10° ESE night (unlit)
16 Dec - 03:06:21 10° SW 03:10:36 39° SSE 03:14:49 10° E visible
16 Dec - 04:47:22 10° WSW 04:51:56 83° S 04:56:26 10° E visible
16 Dec - 06:28:59 10° W 06:33:31 80° S 06:37:58 10° ESE visible
16 Dec - 08:10:42 10° W 08:14:47 35° SSW 08:18:49 10° SE daylight
17 Dec - 01:42:51 10° S 01:46:04 19° SE 01:49:16 10° E night (unlit)
17 Dec - 03:22:32 10° WSW 03:27:01 56° SSE 03:31:28 10° E visible
17 Dec - 05:03:57 10° W 05:08:31 89° SSE 05:13:01 10° E visible
17 Dec - 06:45:34 10° W 06:50:02 64° SSW 06:54:27 10° ESE visible
17 Dec - 08:27:36 10° W 08:31:04 22° SW 08:34:30 10° SSE daylight
18 Dec - 01:58:17 10° SSW 02:02:19 30° SSE 02:06:19 10° E night (unlit)
18 Dec - 03:38:57 10° WSW 03:43:32 75° SSE 03:48:03 10° E visible
18 Dec - 05:20:32 10° W 05:25:06 87° SSW 05:29:36 10° E visible
18 Dec - 07:02:11 10° W 07:06:30 45° SSW 07:10:44 10° SE visible
18 Dec - 08:45:10 10° WSW 08:47:14 13° SW 08:49:16 10° SSW daylight
19 Dec - 00:35:31 10° SSE 00:37:53 14° SE 00:40:15 10° ESE night (unlit)
19 Dec - 02:14:17 10° SW 02:18:41 46° SSE 02:23:03 10° E night (unlit)
19 Dec - 03:55:30 10° W 04:00:06 87° S 04:04:38 10° E visible
19 Dec - 05:37:08 10° W 05:41:40 74° SSW 05:46:08 10° ESE visible
19 Dec - 07:18:56 10° W 07:22:51 29° SSW 07:26:41 10° SSE daylight
